Weather History for Chillicothe, MO

Change the Weather History Date:

Tuesday, May 8, 2012

  Actual Average (KIRK) Record (KIRK)
Temperature  
Mean Temperature 60 °F 59 °F  
Max Temperature 72 °F 70 °F 91 °F (1934)
Min Temperature 48 °F 49 °F 31 °F (1980)
Degree Days  
Heating Degree Days 5 7  
Month to date heating degree days 62  
Since 1 July heating degree days 5752  
Cooling Degree Days 0 1  
Month to date cooling degree days 7  
Year to date cooling degree days 14  
Growing Degree Days 10 (Base 50)    
Moisture  
Dew Point 44 °F    
Average Humidity 56    
Maximum Humidity 93    
Minimum Humidity 30    
Precipitation  
Precipitation 0.00 in 0.17 in 1.30 in (1988)
Month to date precipitation 1.45  
Year to date precipitation 10.64  
Sea Level Pressure  
Sea Level Pressure 30.02 in    
Wind  
Wind Speed 3 mph (NW)    
Max Wind Speed 12 mph    
Max Gust Speed 21 mph    
T = Trace of Precipitation, MM = Missing Value Source: NWS Daily Summary

Daily Weather History Graph

Daily Weather History Graph

Search for Another Location

Airport:

Trip Planner

Search our weather history database for the weather conditions in past years. The results will help you decide how hot, cold, wet, or windy it might be!

Date:

Astronomy

May. 08, 2012 Rise Set
Actual Time 6:05 AM CDT 8:16 PM CDT
Civil Twilight 5:36 AM CDT 8:46 PM CDT
Nautical Twilight 4:59 AM CDT 9:23 PM CDT
Astronomical Twilight 4:19 AM CDT 10:03 PM CDT
Moon 11:27 PM CDT (5/8) 8:14 AM CDT (5/8)
Length of Visible Light 15h 10m
Length of Day
14h 10m
Waning Gibbous, 90% of the Moon is Illuminated
May 8
Waning Gibbous
May 12
Last Quarter
May 20
New
May 28
First Quarter
Jun 4
Full

Hourly Weather History & Observations

Time (CDT) Temp. Dew Point Humidity Pressure Visibility Wind Dir Wind Speed Gust Speed Precip Events Conditions
12:52 AM 57.9 °F 50.0 °F 75% 30.02 in - Calm Calm - N/A   Unknown
1:52 AM 57.9 °F 46.9 °F 67% 30.00 in - Variable 3.5 mph - N/A   Unknown
2:52 AM 54.0 °F 46.9 °F 77% 30.01 in - Calm Calm - N/A   Unknown
3:52 AM 51.1 °F 46.9 °F 86% 30.02 in - Calm Calm - N/A   Unknown
4:52 AM 50.0 °F 46.9 °F 89% 30.04 in - Calm Calm - N/A   Unknown
5:52 AM 51.1 °F 46.9 °F 86% 30.06 in - Calm Calm - N/A   Unknown
6:52 AM 48.9 °F 46.9 °F 93% 30.06 in - Calm Calm - N/A   Unknown
7:52 AM 57.9 °F 46.9 °F 67% 30.04 in - Calm Calm - N/A   Unknown
8:52 AM 61.0 °F 48.9 °F 64% 30.06 in - Calm Calm - N/A   Unknown
9:52 AM 66.0 °F 43.0 °F 43% 30.04 in - WNW 10.4 mph - N/A   Unknown
10:52 AM 68.0 °F 39.0 °F 35% 30.04 in - NW 9.2 mph 18.4 mph N/A   Unknown
11:52 AM 70.0 °F 41.0 °F 35% 30.04 in - West 9.2 mph - N/A   Unknown
12:52 PM 71.1 °F 41.0 °F 34% 30.04 in - NW 9.2 mph - N/A   Unknown
1:52 PM 71.1 °F 39.9 °F 32% 30.01 in - NW 11.5 mph 18.4 mph N/A   Unknown
2:52 PM 71.1 °F 41.0 °F 34% 30.01 in - WNW 11.5 mph 20.7 mph N/A   Unknown
3:52 PM 70.0 °F 37.9 °F 31% 29.99 in - WNW 10.4 mph 19.6 mph N/A   Unknown
4:52 PM 72.0 °F 39.0 °F 30% 29.98 in - NW 9.2 mph - N/A   Unknown
5:52 PM 71.1 °F 41.0 °F 34% 29.97 in - NW 5.8 mph - N/A   Unknown
6:52 PM 69.1 °F 39.0 °F 33% 29.98 in - NW 5.8 mph - N/A   Unknown
7:52 PM 66.0 °F 42.1 °F 42% 29.98 in - North 4.6 mph - N/A   Unknown
8:52 PM 59.0 °F 45.0 °F 60% 29.99 in - Calm Calm - N/A   Unknown
9:52 PM 57.0 °F 44.1 °F 62% 30.01 in - Calm Calm - N/A   Unknown
10:52 PM 55.9 °F 45.0 °F 67% 30.03 in - Calm Calm - N/A   Unknown
11:52 PM 53.1 °F 44.1 °F 71% 30.03 in - Calm Calm - N/A   Unknown